User: anonymous
Location: Unspecified
(0.0000°N, 0.0000°E)
Time: 13:42:14
(UTC+02:00)
Language:

Cosmos 1125 Rocket - Orbit

View from above orbital plane
View from above orbital plane
View from above satellite
View from above satellite

Ground track
Ground track

The orbit data is extracted from the following two-line orbital elements,

1 11511U 79078B   14260.77437916  .00000191  00000-0  74100-4 0  8847
2 11511 074.0399 359.2537 0014699 129.7827 030.3766 14.36449568834530
Epoch (UTC): 17 September 2014 18:35:06
Eccentricity: 0.0014699
inclination: 74.0399°
perigee height: 760 km
apogee height: 781 km
right ascension of ascending node: 359.2537°
argument of perigee: 129.7827°
revolutions per day: 14.36449568
mean anomaly at epoch: 30.3766°
orbit number at epoch: 83453

The dashed part of the orbit path shows where the satellite is in the earth's shadow,  

DLR